FW4072 Weather Reports


time (UTC)temp
F
wind
direction
speed
knots
gust
knots
rain 1hr
in
rain 24hr
in
rain mn
in
humidity
%
barometer
mb
20260507065838 78 113 0.0 2.6 0.00 0.00 0.00 17 1017.6
20260507064019 76 0.0 2.6 0.00 0.00 0.00 19 1017.5
20260507063116 76 113 1.7 2.6 0.00 0.00 0.00 21 1017.6
20260507062215 75 135 0.9 1.7 0.00 0.00 0.00 22 1017.5
20260507061315 74 0.0 1.7 0.00 0.00 0.00 24 1017.6
20260507060414 72 135 0.9 1.7 0.00 0.00 0.00 26 1017.6
20260507055513 72 135 0.9 1.7 0.00 0.00 0.00 27 1017.5
20260507054612 71 0.0 0.9 0.00 0.00 0.00 29 1017.4
20260507053734 70 135 0.9 1.7 0.00 0.00 0.00 30 1017.5
20260507052811 69 0.0 1.7 0.00 0.00 0.00 34 1017.5
20260507051911 67 0.0 1.7 0.00 0.00 0.00 36 1017.5
20260507050111 66 135 1.7 3.5 0.00 0.00 0.00 39 1017.4
20260507045209 64 0.0 3.5 0.00 0.00 0.00 42 1017.2
20260507044329 63 0.9 1.7 0.00 0.00 0.00 43 1017.3
20260507043407 61 0.0 1.7 0.00 0.00 0.00 47 1017.3
20260507042508 59 119 0.9 2.6 0.00 0.00 0.00 52 1017.3
20260507041606 57 0.0 0.9 0.00 0.00 0.00 57 1017.0
20260507040707 55 0.0 1.7 0.00 0.00 0.00 60 1016.9
20260507035825 53 135 0.0 1.7 0.00 0.00 0.00 61 1016.9
20260507034904 52 0.0 0.9 0.00 0.00 0.00 63 1016.9
20260507033105 52 0.0 1.7 0.00 0.00 0.00 63 1016.8
20260507032202 51 0.0 0.9 0.00 0.00 0.00 63 1016.6
20260507031303 51 0.0 1.7 0.00 0.00 0.00 63 1016.6
20260507030423 51 0.0 1.7 0.00 0.00 0.00 63 1016.5
20260507025502 51 0.0 0.9 0.00 0.00 0.00 62 1016.5
20260507024600 52 0.0 0.9 0.00 0.00 0.00 61 1016.5
20260507023659 52 0.0 0.9 0.00 0.00 0.00 61 1016.4
20260507022758 52 0.0 1.7 0.00 0.00 0.00 60 1016.5
20260507021858 52 0.0 0.9 0.00 0.00 0.00 59 1016.4
20260507020057 53 0.0 0.0 0.00 0.00 0.00 59 1016.4
20260507015156 53 0.0 0.9 0.00 0.00 0.00 58 1016.5
20260507014255 53 0.0 0.9 0.00 0.00 0.00 58 1016.5
20260507013355 53 0.0 0.9 0.00 0.00 0.00 57 1016.5
20260507012454 54 0.0 1.7 0.00 0.00 0.00 56 1016.6
20260507011553 54 0.0 1.7 0.00 0.00 0.00 56 1016.6
20260507010653 54 0.0 1.7 0.00 0.00 0.00 56 1016.6
20260507005752 54 0.0 0.9 0.00 0.00 0.00 55 1016.5
20260507004854 54 113 0.0 1.7 0.00 0.00 0.00 56 1016.5
20260507003051 54 158 0.9 1.7 0.00 0.00 0.00 55 1016.4
20260507002150 54 0.0 0.9 0.00 0.00 0.00 55 1016.3
20260507001249 54 0.0 1.7 0.00 0.00 0.00 54 1016.3
20260507000350 55 0.0 0.9 0.00 0.00 0.00 53 1016.3
20260506235448 55 0.0 0.9 0.00 0.00 0.00 52 1016.3
20260506234547 55 0.0 1.7 0.00 0.00 0.00 51 1016.2
20260506233646 55 0.0 0.9 0.00 0.00 0.00 51 1016.5
20260506232746 56 0.0 0.9 0.00 0.00 0.00 51 1016.3
20260506231845 56 0.0 1.7 0.00 0.00 0.00 49 1016.5
20260506230044 56 0.0 0.9 0.00 0.00 0.00 49 1016.5
20260506225144 56 0.0 1.7 0.00 0.00 0.00 47 1016.5
20260506224323 57 0.0 0.9 0.00 0.00 0.00 46 1016.6
20260506223342 57 0.0 0.9 0.00 0.00 0.00 45 1016.5
20260506222442 58 0.0 0.9 0.00 0.00 0.00 45 1016.5
20260506221603 58 0.0 0.9 0.00 0.00 0.00 44 1016.5
20260506220640 58 0.0 0.0 0.00 0.00 0.00 44 1016.6
20260506215739 59 0.0 0.9 0.00 0.00 0.00 43 1016.6
20260506214919 59 0.0 1.7 0.00 0.00 0.00 41 1016.5
20260506213038 60 0.0 1.7 0.00 0.00 0.00 40 1016.5
20260506212137 60 0.0 0.9 0.00 0.00 0.00 40 1016.4
20260506211258 60 0.0 0.9 0.00 0.00 0.00 39 1016.3
20260506210336 60 0.0 1.7 0.00 0.00 0.00 39 1016.3
20260506205457 61 0.0 1.7 0.00 0.00 0.00 39 1016.3
20260506204534 61 0.0 1.7 0.00 0.00 0.00 39 1016.2
20260506203634 61 0.0 1.7 0.00 0.00 0.00 39 1016.3
20260506202733 61 0.9 1.7 0.00 0.00 0.00 38 1016.4
20260506201832 62 135 0.0 1.7 0.00 0.00 0.00 37 1016.3
20260506200031 63 0.0 1.7 0.00 0.00 0.00 36 1016.2
20260506195132 63 0.0 1.7 0.00 0.00 0.00 35 1016.1
20260506194230 64 135 0.9 1.7 0.00 0.00 0.00 34 1016.2
20260506193329 64 135 0.9 2.6 0.00 0.00 0.00 34 1016.2
20260506192429 64 135 0.9 1.7 0.00 0.00 0.00 33 1016.0
20260506191528 64 158 0.9 1.7 0.00 0.00 0.00 32 1016.0
20260506190627 65 0.0 1.7 0.00 0.00 0.00 31 1015.9
20260506185746 65 135 1.7 6.1 0.00 0.00 0.00 31 1015.9
20260506184826 66 113 0.9 3.5 0.00 0.00 0.00 30 1015.6
20260506183025 67 135 1.7 3.5 0.00 0.00 0.00 30 1015.4
20260506182146 68 135 0.9 1.7 0.00 0.00 0.00 28 1015.3
20260506181224 68 135 1.7 3.5 0.00 0.00 0.00 28 1015.3
20260506180323 69 135 1.7 3.5 0.00 0.00 0.00 27 1015.1
20260506175422 69 158 1.7 3.5 0.00 0.00 0.00 25 1014.9
20260506174521 70 158 0.9 2.6 0.00 0.00 0.00 24 1014.8
20260506173620 71 135 1.7 2.6 0.00 0.00 0.00 22 1014.7
20260506172742 71 135 0.9 3.5 0.00 0.00 0.00 21 1014.4
20260506171814 72 135 0.9 1.7 0.00 0.00 0.00 19 1014.4
20260506170914 73 113 0.9 1.7 0.00 0.00 0.00 18 1014.5
20260506165133 73 1.7 1.7 0.00 0.00 0.00 17 1014.4
20260506164212 74 1.7 3.5 0.00 0.00 0.00 16 1014.2
20260506163311 74 158 0.9 2.6 0.00 0.00 0.00 15 1014.2
20260506162411 75 0.0 1.7 0.00 0.00 0.00 14 1014.1
20260506161512 75 135 0.9 2.6 0.00 0.00 0.00 13 1014.1
20260506160610 76 158 1.7 3.5 0.00 0.00 0.00 12 1014.0
20260506155709 76 113 1.7 3.5 0.00 0.00 0.00 11 1013.9
20260506154828 77 135 0.0 4.3 0.00 0.00 0.00 10 1014.0
20260506153904 78 113 0.9 2.6 0.00 0.00 0.00 1013.9
20260506152101 78 0.0 1.7 0.00 0.00 0.00 1013.9
20260506151201 79 113 0.9 1.7 0.00 0.00 0.00 1013.9
20260506150304 79 0.0 1.7 0.00 0.00 0.00 1013.9
20260506145359 79 113 0.9 1.7 0.00 0.00 0.00 1013.9
20260506144519 79 135 1.7 3.5 0.00 0.00 0.00 1013.9
20260506143600 80 0.0 1.7 0.00 0.00 0.00 1013.9
20260506142657 81 135 0.9 2.6 0.00 0.00 0.00 1013.9
20260506141758 82 158 1.7 4.3 0.00 0.00 0.00 1013.9
20260506140858 85 118 1.7 5.2 0.00 0.00 0.00 1013.9
20260506135050 86 158 0.9 3.5 0.00 0.00 0.00 1013.8
20260506134149 86 158 1.7 4.3 0.00 0.00 0.00 1013.9
20260506133250 86 158 0.9 1.7 0.00 0.00 0.00 1013.9
20260506132348 86 158 0.9 2.6 0.00 0.00 0.00 1013.9
20260506131447 87 135 0.9 1.7 0.00 0.00 0.00 1014.0
20260506130548 87 135 1.7 3.5 0.00 0.00 0.00 1014.2
20260506125638 87 135 2.6 6.1 0.00 0.00 0.00 1014.1
20260506124738 87 158 0.9 3.5 0.00 0.00 0.00 1014.1
20260506123919 87 129 1.7 3.5 0.00 0.00 0.00 1014.4
20260506122036 87 0.0 0.9 0.00 0.00 0.00 1014.3
20260506121135 87 0.0 1.7 0.00 0.00 0.00 1014.6
20260506120255 87 158 0.9 3.5 0.00 0.00 0.00 1014.5
20260506115334 87 135 0.9 1.7 0.00 0.00 0.00 1014.6
20260506114435 88 135 0.9 1.7 0.00 0.00 0.00 1014.7
20260506113532 89 0.0 1.7 0.00 0.00 0.00 1014.7
20260506112632 89 135 1.7 2.6 0.00 0.00 0.00 1014.6
20260506111726 88 135 0.9 1.7 0.00 0.00 0.00 1014.7
20260506110826 88 142 1.7 3.5 0.00 0.00 0.00 1014.9
20260506105026 88 113 1.7 3.5 0.00 0.00 0.00 1015.0
20260506104124 88 135 1.7 3.5 0.00 0.00 0.00 1015.0
20260506103225 87 135 0.9 1.7 0.00 0.00 0.00 1015.0
20260506102323 87 135 0.9 1.7 0.00 0.00 0.00 1015.1
20260506101422 87 135 0.9 1.7 0.00 0.00 0.00 1015.0
20260506100521 86 135 0.9 1.7 0.00 0.00 0.00 1014.9
20260506095620 87 135 0.9 2.6 0.00 0.00 0.00 1015.0
20260506094720 87 135 1.7 3.5 0.00 0.00 0.00 1015.1
20260506093814 87 135 1.7 4.3 0.00 0.00 0.00 1015.3
20260506092913 86 113 1.7 4.3 0.00 0.00 0.00 1015.4
20260506091132 86 135 1.7 4.3 0.00 0.00 0.00 1015.3
20260506090212 85 135 0.9 3.5 0.00 0.00 0.00 1015.3
20260506085313 85 135 0.9 2.6 0.00 0.00 0.00 1015.3
20260506084411 84 135 3.5 5.2 0.00 0.00 0.00 1015.4
20260506083530 84 158 1.7 3.5 0.00 0.00 0.00 1015.2
20260506082629 83 158 1.7 4.3 0.00 0.00 0.00 1015.2
20260506081709 83 158 2.6 6.1 0.00 0.00 0.00 1015.1
20260506080808 82 142 0.9 3.5 0.00 0.00 0.00 1015.2
20260506073221 82 113 1.7 4.3 0.00 0.00 0.00 1015.3
20260506072302 81 113 0.9 1.7 0.00 0.00 0.00 10 1015.3
20260506071401 80 135 0.9 1.7 0.00 0.00 0.00 12 1015.3
20260506070458 78 135 1.7 3.5 0.00 0.00 0.00 13 1015.2